This is the latest recevied weather packets stored in our database for station/object KS5S. If no packets are shown the sender has not sent any weather packets the latest 10 day(s).
| Time | Temp. | Humidity | Pressure | Rain* | Wind** | Luminosity | Snow |
|---|---|---|---|---|---|---|---|
| 1777733852 | 18.89° C | 70% | 1020.2 hPa | 0 mm | - | 542 W/m² | - |
| 1777733548 | 18.89° C | 69% | 1020.2 hPa | 0 mm | - | 523 W/m² | - |
| 1777733245 | 18.89° C | 72% | 1020.2 hPa | 0 mm | - | 502 W/m² | - |
| 1777732937 | 18.89° C | 72% | 1020.2 hPa | 0 mm | - | 481 W/m² | - |
| 1777732632 | 18.33° C | 74% | 1020.3 hPa | 0 mm | - | 459 W/m² | - |
| 1777732330 | 18.33° C | 72% | 1020.1 hPa | 0 mm | - | 434 W/m² | - |
| 1777732028 | 17.78° C | 76% | 1020.1 hPa | 0 mm | - | 405 W/m² | - |
| 1777731724 | 17.78° C | 76% | 1020.2 hPa | 0 mm | - | 381 W/m² | - |
| 1777731421 | 17.22° C | 75% | 1020 hPa | 0 mm | - | 354 W/m² | - |
| 1777731120 | 17.22° C | 76% | 1019.9 hPa | 0 mm | - | 328 W/m² | - |
| 1777730514 | 16.67° C | 78% | 1019.8 hPa | 0 mm | - | 248 W/m² | - |
| 1777730210 | 16.11° C | 77% | 1019.7 hPa | 0 mm | - | 270 W/m² | - |
| 1777729907 | 16.11° C | 80% | 1019.8 hPa | 0 mm | - | 281 W/m² | - |
| 1777729603 | 15.56° C | 77% | 1019.5 hPa | 0 mm | - | 303 W/m² | - |
| 1777729300 | 15.56° C | 79% | 1019.8 hPa | 0 mm | - | 281 W/m² | - |
| 1777728997 | 15° C | 79% | 1019.7 hPa | 0 mm | - | 271 W/m² | - |
| 1777728693 | 15° C | 80% | 1019.3 hPa | 0 mm | - | 245 W/m² | - |
| 1777728390 | 14.44° C | 80% | 1019.7 hPa | 0 mm | - | 206 W/m² | - |
| 1777728088 | 14.44° C | 80% | 1019.5 hPa | 0 mm | - | 170 W/m² | - |
| 1777727785 | 14.44° C | 82% | 1019.4 hPa | 0 mm | - | 157 W/m² | - |
| 1777727481 | 13.89° C | 83% | 1019.5 hPa | 0 mm | - | 158 W/m² | - |
| 1777727179 | 13.33° C | 82% | 1019.4 hPa | 0 mm | - | 127 W/m² | - |
| 1777726877 | 12.78° C | 84% | 1019.3 hPa | 0 mm | - | 108 W/m² | - |
| 1777726572 | 12.78° C | 85% | 1019.4 hPa | 0 mm | - | 66 W/m² | - |
| 1777726270 | 12.22° C | 85% | 1019.3 hPa | 0 mm | - | 83 W/m² | - |
* Rain latest hour (hover to see other rain measurements)
** Current wind speed in m/s (hover to see current wind gust speed)